User: anonymous   Login
Location: Chenango Forks
(42.2242°N, 75.8278°W)
Time: 20:30:15
(UTC-05:00)
Language:

Okean 3 Rocket - Orbit

View from above orbital plane
View from above orbital plane
View from above satellite
View from above satellite

Ground track
Ground track

The orbit data is extracted from the following two-line orbital elements,

1 21398U 91039B   18051.46704691  .00000106  00000-0  10856-4 0  9998
2 21398  82.5254 355.0645 0023017  88.9886  51.9039 14.79695669440624
Epoch (UTC): 20 February 2018 11:12:32
Eccentricity: 0.0023017
inclination: 82.5254°
perigee height: 614 km
apogee height: 646 km
right ascension of ascending node: 355.0645°
argument of perigee: 88.9886°
revolutions per day: 14.79695669
mean anomaly at epoch: 51.9039°
orbit number at epoch: 44062

The dashed part of the orbit path shows where the satellite is in the earth's shadow,  

DLR